When you browse on this site, cookies collect data to enhance your experience and personalize the content and advertising you see.
Visit our Privacy Policy to learn more. By continuing to use the site, you agree to this use of cookies and data.
  • In Österreich
  • Länderverzeichnis
  • Für 7 Tage
  • Wassertemperatur
  • Wetterkarte
  • News
  • Widgets
  • user-avatar
    Anmelden

    Stündliche Wetter Orange Walk

    Heute, 28 Februar, Freitag

    Zeit Temperatur Niederschläge Wind Luftdruck Luftfeuchtigkeit
    00:00 +21°C° 0 mm 2 m/S 765 mmHg 68%
    01:00 +20°C° 0 mm 2 m/S 765 mmHg 70%
    02:00 +19°C° 0 mm 2 m/S 764 mmHg 73%
    03:00 +19°C° 0 mm 2 m/S 764 mmHg 76%
    04:00 +19°C° 0 mm 2 m/S 764 mmHg 76%
    05:00 +19°C° 0 mm 2 m/S 764 mmHg 77%
    06:00 +19°C° 0 mm 3 m/S 765 mmHg 76%
    07:00 +19°C° 0 mm 3 m/S 765 mmHg 76%
    08:00 +20°C° 0 mm 3 m/S 766 mmHg 76%
    09:00 +20°C° 0 mm 2 m/S 766 mmHg 76%
    10:00 +21°C° 0 mm 3 m/S 766 mmHg 71%
    11:00 +24°C° 0 mm 3 m/S 766 mmHg 66%
    12:00 +25°C° 0 mm 3 m/S 766 mmHg 61%
    13:00 +26°C° 0 mm 3 m/S 765 mmHg 59%
    14:00 +27°C° 0 mm 3 m/S 764 mmHg 56%
    15:00 +27°C° 0 mm 3 m/S 764 mmHg 53%
    16:00 +26°C° 0 mm 2 m/S 764 mmHg 56%
    17:00 +25°C° 0 mm 2 m/S 764 mmHg 60%
    18:00 +24°C° 0 mm 1 m/S 764 mmHg 64%
    19:00 +24°C° 0 mm 1 m/S 765 mmHg 66%
    20:00 +24°C° 0 mm 2 m/S 766 mmHg 68%
    21:00 +23°C° 0 mm 2 m/S 766 mmHg 70%
    22:00 +23°C° 0 mm 2 m/S 766 mmHg 70%
    23:00 +21°C° 0 mm 2 m/S 766 mmHg 70%

    Morgen, 29 Februar, Samstag

    Zeit Temperatur Niederschläge Wind Luftdruck Luftfeuchtigkeit
    00:00 +21°C° 0 mm 2 m/S 766 mmHg 70%
    01:00 +21°C° 0 mm 2 m/S 766 mmHg 70%
    02:00 +20°C° 0 mm 2 m/S 766 mmHg 70%
    03:00 +20°C° 0 mm 2 m/S 766 mmHg 71%
    04:00 +19°C° 0 mm 2 m/S 766 mmHg 71%
    05:00 +19°C° 0 mm 2 m/S 766 mmHg 71%
    06:00 +19°C° 0 mm 2 m/S 766 mmHg 71%
    07:00 +19°C° 0 mm 2 m/S 766 mmHg 70%
    08:00 +19°C° 0 mm 2 m/S 767 mmHg 69%
    09:00 +20°C° 0 mm 2 m/S 767 mmHg 68%
    10:00 +23°C° 0 mm 2 m/S 767 mmHg 63%
    11:00 +25°C° 0 mm 2 m/S 767 mmHg 58%
    12:00 +27°C° 0 mm 2 m/S 766 mmHg 53%
    13:00 +27°C° 0 mm 2 m/S 765 mmHg 56%
    14:00 +26°C° 0 mm 3 m/S 764 mmHg 58%
    15:00 +26°C° 0 mm 3 m/S 763 mmHg 61%
    16:00 +25°C° 0 mm 2 m/S 764 mmHg 64%
    17:00 +24°C° 0 mm 2 m/S 764 mmHg 68%
    18:00 +23°C° 0 mm 2 m/S 764 mmHg 71%
    19:00 +23°C° 0 mm 2 m/S 764 mmHg 71%
    20:00 +23°C° 0 mm 2 m/S 765 mmHg 72%
    21:00 +22°C° 0 mm 3 m/S 765 mmHg 72%
    22:00 +21°C° 0 mm 2 m/S 765 mmHg 74%
    23:00 +21°C° 0 mm 2 m/S 765 mmHg 76%

    übermorgen, 1 März, Sonntag

    Zeit Temperatur Niederschläge Wind Luftdruck Luftfeuchtigkeit
    00:00 +20°C° 0 mm 2 m/S 765 mmHg 78%
    01:00 +20°C° 0 mm 2 m/S 764 mmHg 81%
    02:00 +20°C° 0 mm 1 m/S 764 mmHg 85%
    03:00 +19°C° 0 mm 1 m/S 763 mmHg 88%
    04:00 +19°C° 0 mm 1 m/S 763 mmHg 89%
    05:00 +19°C° 0 mm 1 m/S 763 mmHg 90%
    06:00 +19°C° 0 mm 1 m/S 763 mmHg 92%
    07:00 +20°C° 0 mm 1 m/S 763 mmHg 86%
    08:00 +22°C° 0 mm 1 m/S 764 mmHg 79%
    09:00 +24°C° 0 mm 1 m/S 764 mmHg 73%
    10:00 +25°C° 0 mm 2 m/S 764 mmHg 68%
    11:00 +27°C° 0 mm 2 m/S 763 mmHg 62%
    12:00 +28°C° 0 mm 3 m/S 762 mmHg 56%
    13:00 +28°C° 0 mm 3 m/S 762 mmHg 57%
    14:00 +28°C° 0 mm 3 m/S 761 mmHg 57%
    15:00 +28°C° 0 mm 4 m/S 760 mmHg 58%
    16:00 +27°C° 0 mm 3 m/S 760 mmHg 64%
    17:00 +25°C° 0 mm 2 m/S 760 mmHg 70%
    18:00 +24°C° 0 mm 2 m/S 760 mmHg 76%
    19:00 +23°C° 0 mm 2 m/S 761 mmHg 81%
    20:00 +21°C° 0 mm 2 m/S 761 mmHg 86%
    21:00 +21°C° 0 mm 2 m/S 761 mmHg 91%
    22:00 +22°C° 0 mm 1 m/S 761 mmHg 92%
    23:00 +22°C° 0 mm 1 m/S 761 mmHg 93%

    2 März, Montag

    Zeit Temperatur Niederschläge Wind Luftdruck Luftfeuchtigkeit
    00:00 +22°C° 0 mm 1 m/S 760 mmHg 95%
    01:00 +22°C° 0.1 mm 1 m/S 760 mmHg 94%
    02:00 +22°C° 0.1 mm 1 m/S 759 mmHg 93%
    03:00 +23°C° 0.1 mm 1 m/S 759 mmHg 93%
    04:00 +22°C° 0 mm 1 m/S 759 mmHg 94%
    05:00 +22°C° 0 mm 1 m/S 759 mmHg 95%
    06:00 +22°C° 0 mm 1 m/S 759 mmHg 96%
    07:00 +24°C° 0 mm 2 m/S 759 mmHg 87%
    08:00 +26°C° 0 mm 3 m/S 759 mmHg 78%
    09:00 +28°C° 0 mm 4 m/S 760 mmHg 70%
    10:00 +29°C° 0 mm 4 m/S 759 mmHg 67%
    11:00 +29°C° 0 mm 4 m/S 759 mmHg 63%
    12:00 +30°C° 0 mm 4 m/S 759 mmHg 60%
    13:00 +30°C° 0 mm 4 m/S 758 mmHg 62%
    14:00 +29°C° 0 mm 4 m/S 757 mmHg 63%
    15:00 +29°C° 0 mm 4 m/S 756 mmHg 64%
    16:00 +28°C° 0 mm 3 m/S 756 mmHg 69%
    17:00 +27°C° 0 mm 3 m/S 756 mmHg 74%
    18:00 +25°C° 0 mm 2 m/S 756 mmHg 79%
    19:00 +25°C° 0 mm 2 m/S 756 mmHg 83%
    20:00 +24°C° 0 mm 2 m/S 756 mmHg 87%
    21:00 +24°C° 0 mm 1 m/S 756 mmHg 91%
    22:00 +24°C° 0 mm 2 m/S 756 mmHg 90%
    23:00 +25°C° 0 mm 2 m/S 756 mmHg 89%

    3 März, Dienstag

    Zeit Temperatur Niederschläge Wind Luftdruck Luftfeuchtigkeit
    00:00 +26°C° 0 mm 2 m/S 756 mmHg 88%
    01:00 +26°C° 0.1 mm 2 m/S 755 mmHg 89%
    02:00 +26°C° 0.1 mm 2 m/S 755 mmHg 90%
    03:00 +26°C° 0.1 mm 2 m/S 754 mmHg 91%
    04:00 +26°C° 0 mm 2 m/S 755 mmHg 90%
    05:00 +26°C° 0 mm 2 m/S 755 mmHg 90%
    06:00 +26°C° 0 mm 2 m/S 755 mmHg 90%
    07:00 +28°C° 0 mm 3 m/S 755 mmHg 84%
    08:00 +29°C° 0 mm 4 m/S 756 mmHg 77%
    09:00 +32°C° 0 mm 5 m/S 756 mmHg 70%
    10:00 +33°C° 0 mm 5 m/S 756 mmHg 66%
    11:00 +34°C° 0 mm 5 m/S 755 mmHg 61%
    12:00 +35°C° 0 mm 5 m/S 755 mmHg 57%
    13:00 +34°C° 0 mm 5 m/S 754 mmHg 57%
    14:00 +34°C° 0 mm 5 m/S 753 mmHg 58%
    15:00 +34°C° 0 mm 5 m/S 753 mmHg 58%
    16:00 +32°C° 0 mm 4 m/S 753 mmHg 65%
    17:00 +30°C° 0 mm 3 m/S 753 mmHg 72%
    18:00 +28°C° 0 mm 3 m/S 753 mmHg 78%
    19:00 +27°C° 0 mm 3 m/S 754 mmHg 82%
    20:00 +27°C° 0 mm 3 m/S 754 mmHg 85%
    21:00 +26°C° 0 mm 2 m/S 755 mmHg 89%
    22:00 +26°C° 0 mm 2 m/S 754 mmHg 89%
    23:00 +27°C° 0 mm 2 m/S 754 mmHg 90%

    4 März, Mittwoch

    Zeit Temperatur Niederschläge Wind Luftdruck Luftfeuchtigkeit
    00:00 +27°C° 0 mm 2 m/S 754 mmHg 90%
    01:00 +27°C° 0 mm 2 m/S 754 mmHg 90%
    02:00 +27°C° 0 mm 2 m/S 754 mmHg 90%
    03:00 +27°C° 0 mm 2 m/S 754 mmHg 90%
    04:00 +26°C° 0 mm 2 m/S 754 mmHg 91%
    05:00 +26°C° 0 mm 2 m/S 754 mmHg 91%
    06:00 +26°C° 0 mm 2 m/S 755 mmHg 91%
    07:00 +28°C° 0 mm 2 m/S 756 mmHg 84%
    08:00 +30°C° 0 mm 3 m/S 756 mmHg 77%
    09:00 +31°C° 0 mm 3 m/S 757 mmHg 69%
    10:00 +34°C° 0 mm 3 m/S 757 mmHg 63%
    11:00 +35°C° 0 mm 3 m/S 757 mmHg 57%
    12:00 +37°C° 0 mm 2 m/S 757 mmHg 51%
    13:00 +37°C° 0 mm 2 m/S 757 mmHg 51%
    14:00 +37°C° 0 mm 2 m/S 756 mmHg 51%
    15:00 +37°C° 0 mm 3 m/S 756 mmHg 51%
    16:00 +34°C° 0.9 mm 3 m/S 757 mmHg 63%
    17:00 +30°C° 0.9 mm 3 m/S 758 mmHg 75%
    18:00 +27°C° 0.9 mm 3 m/S 758 mmHg 87%
    19:00 +26°C° 0.2 mm 4 m/S 760 mmHg 87%
    20:00 +25°C° 0.2 mm 5 m/S 761 mmHg 87%
    21:00 +25°C° 0.2 mm 5 m/S 762 mmHg 87%
    22:00 +23°C° 0 mm 5 m/S 762 mmHg 82%
    23:00 +22°C° 0 mm 4 m/S 762 mmHg 77%
    Mehr zeigen